Weather History for KIOW - August, 2013

Change the Weather History Date:

Friday, August 9, 2013

  Actual Average Record
Temperature  
Mean Temperature 73 °F 74 °F  
Max Temperature 83 °F 83 °F 100 °F (2005)
Min Temperature 63 °F 64 °F 51 °F (1972)
Degree Days  
Heating Degree Days 0 0  
Month to date heating degree days 0 0  
Since 1 June heating degree days 29 19  
Since 1 July heating degree days 8 2  
Cooling Degree Days 8 9  
Month to date cooling degree days 71 81  
Year to date cooling degree days 640 659  
Since 1 June cooling degree days 553 598  
Growing Degree Days 22 (Base 50)    
Moisture  
Dew Point 62 °F    
Average Humidity 74    
Maximum Humidity 93    
Minimum Humidity 55    
Precipitation  
Precipitation 0.00 in 0.16 in 1.83 in (1974)
Month to date precipitation 0.04 1.14  
Year to date precipitation 28.22 22.79  
Sea Level Pressure  
Sea Level Pressure 30.03 in    
Wind  
Wind Speed 5 mph (NW)    
Max Wind Speed 13 mph    
Max Gust Speed 17 mph    
Visibility 10 miles    
Events      
T = Trace of Precipitation, MM = Missing Value Source: NWS Daily Summary

Daily Weather History Graph

Daily Weather History Graph

Search for Another Location

Airport or City:

Trip Planner

Search our weather history database for the weather conditions in past years. The results will help you decide how hot, cold, wet, or windy it might be!

Date:

Astronomy

Aug. 09, 2013 Rise Set
Actual Time 6:08 AM CDT 8:13 PM CDT
Civil Twilight 5:38 AM CDT 8:44 PM CDT
Nautical Twilight 5:01 AM CDT 9:21 PM CDT
Astronomical Twilight 4:20 AM CDT 10:01 PM CDT
Moon 8:58 AM CDT (8/9) 9:19 PM CDT (8/9)
Length of Visible Light 15h 05m
Length of Day
14h 04m
Waxing Crescent, 8% of the Moon is Illuminated
Aug 9
Waxing Crescent
Aug 14
First Quarter
Aug 20
Full
Aug 28
Last Quarter
Sep 5
New

Hourly Weather History & Observations

Time (CDT) Temp. Heat Index Dew Point Humidity Pressure Visibility Wind Dir Wind Speed Gust Speed Precip Events Conditions
12:52 AM 66.0 °F - 62.1 °F 87% 30.01 in 10.0 mi Calm Calm - N/A   Clear
1:52 AM 66.0 °F - 62.1 °F 87% 30.01 in 10.0 mi Calm Calm - N/A   Clear
2:52 AM 64.0 °F - 61.0 °F 90% 30.00 in 10.0 mi Calm Calm - N/A   Clear
3:52 AM 63.0 °F - 61.0 °F 93% 29.99 in 10.0 mi Calm Calm - N/A   Clear
4:52 AM 64.0 °F - 62.1 °F 93% 30.00 in 10.0 mi Calm Calm - N/A   Clear
5:52 AM 63.0 °F - 61.0 °F 93% 30.01 in 10.0 mi Calm Calm - N/A   Partly Cloudy
6:52 AM 64.9 °F - 63.0 °F 93% 30.03 in 10.0 mi Calm Calm - N/A   Overcast
7:52 AM 66.9 °F - 63.0 °F 87% 30.03 in 10.0 mi Calm Calm - N/A   Overcast
8:52 AM 71.1 °F - 64.0 °F 78% 30.03 in 10.0 mi West 5.8 mph - N/A   Overcast
9:52 AM 73.9 °F - 64.0 °F 71% 30.03 in 10.0 mi West 5.8 mph - N/A   Overcast
10:52 AM 79.0 °F - 64.0 °F 60% 30.03 in 10.0 mi NNW 6.9 mph - N/A   Clear
11:52 AM 80.1 °F 81.7 °F 64.0 °F 58% 30.03 in 10.0 mi WNW 10.4 mph - N/A   Clear
12:52 PM 80.1 °F 81.7 °F 64.0 °F 58% 30.02 in 10.0 mi NW 6.9 mph - N/A   Mostly Cloudy
1:52 PM 82.9 °F 84.6 °F 64.9 °F 54% 30.02 in 10.0 mi West 6.9 mph - N/A   Scattered Clouds
2:52 PM 80.1 °F 82.1 °F 66.0 °F 62% 30.03 in 10.0 mi WNW 5.8 mph - N/A   Mostly Cloudy
3:52 PM 80.1 °F 81.9 °F 64.9 °F 60% 30.02 in 10.0 mi NNW 9.2 mph - N/A   Partly Cloudy
4:52 PM 80.1 °F 81.7 °F 64.0 °F 58% 30.03 in 10.0 mi NW 9.2 mph - N/A   Clear
5:52 PM 79.0 °F - 62.1 °F 56% 30.03 in 10.0 mi NNW 9.2 mph - N/A   Clear
6:52 PM 77.0 °F - 60.1 °F 56% 30.04 in 10.0 mi NW 6.9 mph - N/A   Clear
7:52 PM 73.9 °F - 60.1 °F 62% 30.05 in 10.0 mi NW 4.6 mph - N/A   Clear
8:52 PM 72.0 °F - 59.0 °F 64% 30.06 in 10.0 mi NNW 4.6 mph - N/A   Clear
9:52 PM 69.1 °F - 59.0 °F 70% 30.08 in 10.0 mi NW 4.6 mph - N/A   Clear
10:52 PM 66.9 °F - 59.0 °F 76% 30.09 in 10.0 mi WNW 5.8 mph - N/A   Clear
11:52 PM 66.0 °F - 60.1 °F 81% 30.11 in 10.0 mi NW 5.8 mph - N/A   Clear